Wind_Speed
21 22 23 24 23 23 21 20 18 17 15 14 13 11 9 5 5 7 10 15 16 14 11 6 5 5 6 6 6 2 4 2 2 2 2 5 5 4 7 3 7 3 4 7 3
24 26 28 28 26 24 21 19 18 17 15 13 11 10 7 5 2 10 13 15 14 14 12 10 6 9 4 4 4 5 4 1 1 1 2 3 3 8 5 10 6 11 5 7 6
24 27 28 29 28 26 21 19 18 16 14 12 9 7 6 3 2 8 12 15 14 12 13 10 5 5 5 4 5 2 4 3 2 1 2 4 7 3 5 4 7 9 14 14 10
25 28 31 30 30 26 23 19 18 16 13 10 7 4 4 3 1 8 11 14 13 12 9 7 5 4 4 4 4 4 2 1 1 2 3 2 4 3 8 9 9 12 13 11 14
27 29 31 31 30 25 23 20 17 15 11 7 5 3 2 5 5 8 10 13 10 11 13 9 12 4 3 4 4 2 1 4 3 8 6 7 7 6 12 8 6 7 8 11 14
28 30 31 31 29 24 22 20 17 12 8 4 4 3 4 4 6 7 11 11 11 11 12 12 7 4 2 3 3 4 6 8 4 4 5 3 5 3 1 2 8 7 9 10 10
28 29 31 31 28 22 21 20 14 8 5 4 5 9 11 5 5 8 12 10 12 12 11 9 6 5 4 5 8 5 6 6 2 1 3 7 1 4 1 4 14 6 6 8 8
27 29 30 30 27 21 21 17 9 6 5 6 7 6 6 6 6 9 9 9 9 8 8 8 5 5 3 6 4 5 4 5 5 2 2 4 7 6 6 10 13 12 7 3 8
27 28 29 29 24 20 20 12 6 9 7 7 7 6 4 4 7 9 10 10 6 7 6 6 4 4 4 3 4 7 2 4 9 6 3 2 9 7 13 15 16 11 4 6 4
26 27 28 29 24 19 18 6 3 13 5 5 7 5 4 6 7 7 9 7 7 6 3 6 5 4 4 5 2 2 2 4 5 4 5 7 17 12 20 16 13 7 8 6 5
25 26 27 26 24 19 17 3 3 2 17 7 6 3 3 5 3 6 9 3 5 5 4 5 6 2 2 0 2 2 3 4 5 3 6 4 13 17 19 9 9 10 10 8 7
25 26 26 23 20 18 15 11 10 4 3 8 5 4 4 6 4 8 10 3 4 2 3 6 2 2 3 2 2 2 3 5 5 3 4 6 15 11 4 4 11 14 11 9 8
25 26 24 21 13 15 19 19 12 5 2 5 6 5 5 6 4 8 10 5 3 3 4 2 1 1 2 3 4 3 3 2 5 7 2 8 7 4 3 3 7 9 6 5 6
25 26 24 19 7 11 12 14 9 4 4 6 4 4 5 6 3 6 9 7 4 5 4 0 1 2 2 2 2 3 1 3 6 5 3 3 4 5 3 3 4 6 3 5 10
23 24 23 17 9 6 9 11 6 1 4 4 3 4 5 2 4 3 6 4 3 5 5 2 1 1 2 2 1 6 2 4 2 2 3 2 2 7 3 2 1 7 5 5 9
22 22 19 14 10 11 10 7 2 5 2 4 4 3 4 1 1 2 3 3 1 2 0 4 2 2 3 2 2 4 3 4 3 3 2 3 3 5 3 3 3 1 2 9 13
21 19 16 13 11 10 8 2 5 6 3 5 3 4 4 3 2 1 1 3 2 5 5 4 2 1 2 2 4 5 5 3 5 3 4 3 2 8 4 1 4 2 6 9 13
19 15 11 11 12 10 7 3 6 3 2 4 4 6 2 4 2 2 2 3 4 4 2 2 6 3 2 1 4 1 3 4 4 2 4 5 6 5 2 6 1 2 5 10 13
17 12 9 11 11 9 4 5 2 1 3 6 7 4 4 3 2 5 2 3 3 2 3 1 5 1 1 1 4 1 1 3 2 2 2 3 7 7 5 3 3 5 9 12 13
16 8 9 11 9 7 4 3 3 1 2 2 1 3 3 5 6 6 3 3 1 1 2 2 4 2 0 1 1 2 0 1 2 2 4 4 6 5 4 2 5 7 10 11 12
13 2 7 11 5 4 4 2 0 2 3 2 2 2 2 3 2 4 3 3 3 3 3 1 2 5 1 3 5 1 2 2 2 4 3 2 6 5 4 2 5 7 8 10 12
6 2 9 7 3 3 2 2 1 1 3 2 2 3 2 1 3 3 3 2 2 1 2 2 1 4 9 4 3 3 4 5 3 5 3 2 6 4 7 2 6 7 12 11 12
6 3 5 7 3 1 3 1 2 1 0 2 1 2 2 1 3 3 2 3 6 3 1 1 1 4 8 4 2 1 1 3 1 2 6 3 8 3 4 13 25 18 30 22 15
4 3 2 4 3 4 2 1 2 3 1 2 2 0 1 2 4 4 3 1 10 3 3 1 3 7 7 2 2 7 9 7 4 7 9 13 23 24 17 17 19 28 33 20 14
1 1 0 2 1 2 1 1 2 3 2 2 1 2 1 3 3 3 2 5 5 7 3 3 5 4 7 5 5 12 12 11 13 15 12 17 21 25 21 19 24 24 19 12 12
3 2 2 2 3 3 2 4 5 1 1 1 1 0 1 3 2 5 4 2 6 4 5 6 4 1 6 8 10 14 14 12 17 17 15 19 20 14 20 15 16 16 16 12 14
7 7 2 2 1 2 3 3 4 3 0 0 4 1 3 6 8 16 20 18 14 1 3 4 3 6 4 4 11 10 4 6 4 2 4 3 5 6 8 11 18 20 19 17 15
Wind_Direction
16 13 9 4 1 358 354 347 344 344 350 351 354 357 8 15 30 49 33 18 5 3 8 32 66 82 54 60 57 57 61 60 23 54 224 346 3 325 339 305 319 287 6 353 118
8 5 3 0 358 358 352 344 341 340 342 347 349 352 7 19 71 35 21 11 3 360 5 30 51 38 61 42 35 72 87 133 337 170 237 305 354 320 339 325 288 292 282 342 322
4 0 359 357 356 355 352 343 343 341 337 342 346 352 6 47 118 17 11 4 2 4 6 2 359 20 44 42 18 68 140 188 186 159 318 313 323 325 312 309 261 305 311 322 317
2 359 356 355 354 353 349 346 345 343 339 341 352 5 9 44 123 11 6 2 3 5 5 30 38 26 52 27 17 96 71 131 225 290 311 273 283 282 252 251 289 299 301 306 321
0 358 355 353 353 352 349 347 349 344 342 344 20 19 62 74 48 13 4 357 9 2 24 41 54 41 42 328 4 67 280 303 263 283 282 282 262 253 269 291 280 274 266 290 308
357 356 354 352 352 351 350 349 348 348 349 7 38 50 101 77 42 20 359 358 12 20 19 35 47 55 356 335 38 327 299 281 279 252 279 293 282 212 257 46 358 291 281 288 299
356 355 353 353 353 353 349 348 349 359 19 47 80 100 87 77 36 14 358 3 8 15 25 47 42 66 359 350 343 337 355 336 268 265 277 317 193 210 245 324 333 320 289 302 306
356 355 353 352 355 354 352 350 3 23 57 78 95 101 76 61 36 0 7 7 1 29 42 26 47 81 57 317 19 14 47 14 330 3 320 31 272 256 254 303 314 322 290 14 108
355 355 353 351 356 357 357 2 52 31 73 87 74 104 81 45 4 11 5 7 24 29 35 24 58 52 37 47 31 18 341 346 327 19 332 351 278 255 290 301 304 303 254 151 141
355 356 355 350 354 2 0 6 87 45 63 70 57 97 54 343 346 12 10 18 18 20 33 27 31 56 25 47 209 279 346 315 262 305 348 279 271 291 294 292 275 259 187 195 208
355 357 357 352 350 3 15 29 11 15 36 47 18 9 350 357 14 10 8 24 27 49 36 16 63 74 297 328 162 185 219 265 256 269 344 262 285 290 297 275 265 207 197 214 218
355 356 357 356 348 6 17 67 46 2 343 35 39 32 33 11 354 358 360 9 53 42 6 21 72 216 283 302 266 262 288 290 285 304 328 307 293 288 287 223 219 211 213 224 230
353 355 359 354 350 2 24 41 22 57 20 5 12 359 350 355 7 346 4 358 37 40 33 134 207 319 351 342 347 288 238 277 269 318 273 318 308 330 317 242 222 217 250 240 267
350 354 357 360 2 358 17 17 4 59 79 318 360 1 343 336 5 2 7 8 7 359 6 300 18 30 357 302 110 298 323 312 297 19 290 55 273 303 319 306 312 266 284 313 316
350 353 355 3 1 7 354 359 0 33 60 281 319 334 330 350 318 25 6 22 24 337 50 298 329 53 303 259 92 243 316 279 262 256 26 296 67 270 312 219 276 56 47 17 351
348 352 355 3 7 350 347 351 347 44 273 343 317 330 351 341 281 325 30 29 31 24 194 247 294 182 223 267 217 306 335 33 56 83 350 248 130 281 202 201 129 126 312 353 346
348 352 356 4 359 1 353 358 32 94 293 327 325 348 345 287 315 241 56 19 73 29 358 331 269 235 232 294 16 45 46 335 352 11 232 328 11 248 271 322 159 218 347 338 342
348 354 6 8 7 7 354 42 72 280 338 335 331 309 260 3 306 311 34 24 30 90 86 59 327 192 171 208 208 343 134 148 242 257 276 332 246 260 273 149 158 345 320 329 340
348 352 16 13 9 2 6 54 163 226 289 335 326 359 332 347 344 360 13 173 155 154 166 44 276 74 202 166 132 283 204 173 116 192 71 245 281 295 243 242 341 313 334 337 334
347 355 21 11 4 3 61 131 162 117 327 357 339 29 324 323 351 9 320 341 10 14 142 207 302 226 171 64 52 188 253 32 23 304 269 291 284 237 263 301 328 324 330 320 319
343 8 1 345 10 45 106 180 157 3 360 49 282 305 347 341 322 298 306 8 1 326 345 335 151 299 78 211 194 131 243 229 176 161 217 280 261 223 245 191 295 305 313 300 307
337 358 356 6 60 47 113 153 227 18 359 317 260 246 209 321 266 259 270 274 333 331 358 353 146 276 243 278 245 202 220 170 134 266 224 183 263 276 242 160 337 311 327 299 301
333 322 6 10 102 16 310 178 214 179 168 348 300 352 24 285 308 238 300 23 4 328 176 333 330 332 325 8 21 342 244 241 205 92 213 213 261 188 37 315 311 313 321 307 289
329 353 12 54 85 133 90 308 255 238 230 226 224 340 299 245 209 277 307 13 334 324 316 238 208 194 241 281 338 285 296 300 260 270 276 240 278 284 293 292 296 302 305 298 284
291 241 297 291 294 111 115 221 230 239 208 230 69 60 337 294 292 234 24 336 311 292 279 187 231 222 259 288 276 274 277 266 259 258 254 280 280 284 297 299 295 298 312 295 297
250 189 212 259 237 165 205 221 208 186 245 220 173 158 325 224 267 304 358 198 243 352 12 358 277 266 281 261 277 291 275 269 262 264 259 264 273 298 322 349 351 351 346 328 319
218 214 205 232 204 114 230 204 197 154 227 43 117 41 255 256 273 279 272 255 255 318 29 327 316 349 282 352 326 289 220 251 260 14 262 308 307 314 320 360 18 5 7 354 345
Height
1550 1547 1545 1541 1538 1534 1531 1528 1525 1522 1519 1517 1515 1513 1512 1511 1510 1509 1507 1508 1505 1503 1501 1499 1498 1496 1495 1495 1496 1496 1508 1516 1512 1511 1511 1509 1508 1505 1504 1503 1502 1502 1501 1501 1501
1549 1547 1544 1540 1537 1533 1529 1526 1522 1520 1518 1516 1514 1512 1512 1510 1511 1510 1510 1509 1507 1505 1502 1500 1498 1497 1496 1497 1497 1498 1513 1509 1508 1508 1508 1508 1507 1506 1504 1502 1500 1499 1500 1501 1501
1550 1547 1543 1539 1535 1532 1528 1524 1521 1519 1517 1515 1513 1512 1511 1511 1511 1511 1512 1510 1508 1505 1503 1502 1500 1499 1498 1499 1501 1501 1509 1506 1507 1506 1506 1505 1504 1503 1503 1502 1498 1498 1498 1499 1499
1550 1546 1542 1538 1534 1529 1526 1522 1519 1517 1515 1513 1512 1511 1510 1511 1515 1513 1512 1509 1507 1504 1502 1501 1500 1501 1502 1503 1502 1504 1506 1506 1505 1505 1505 1505 1504 1503 1502 1500 1499 1498 1497 1497 1497
1549 1545 1541 1537 1532 1527 1524 1520 1517 1515 1513 1511 1511 1511 1511 1512 1514 1513 1511 1509 1507 1505 1501 1500 1499 1502 1505 1505 1503 1504 1505 1505 1504 1504 1504 1504 1503 1503 1499 1498 1498 1498 1497 1496 1496
1548 1544 1540 1535 1531 1526 1522 1519 1515 1513 1512 1511 1510 1510 1511 1513 1513 1513 1512 1510 1507 1504 1503 1503 1503 1504 1505 1505 1506 1506 1505 1503 1502 1502 1502 1502 1501 1501 1497 1497 1497 1496 1496 1495 1495
1547 1543 1538 1534 1530 1525 1521 1517 1514 1512 1511 1510 1509 1511 1511 1516 1514 1513 1512 1510 1508 1507 1505 1504 1504 1505 1507 1508 1508 1507 1507 1503 1502 1502 1502 1501 1500 1499 1495 1495 1494 1494 1494 1493 1492
1547 1542 1537 1532 1529 1525 1520 1517 1514 1512 1510 1510 1510 1511 1514 1515 1515 1514 1512 1510 1508 1507 1507 1505 1506 1505 1506 1507 1507 1509 1510 1516 1505 1504 1504 1503 1504 1493 1492 1493 1492 1492 1491 1491 1491
1546 1541 1537 1531 1527 1524 1520 1517 1516 1514 1512 1511 1511 1510 1515 1516 1515 1513 1512 1510 1508 1509 1509 1507 1506 1508 1508 1511 1516 1519 1522 1518 1513 1506 1506 1507 1503 1491 1492 1492 1490 1488 1489 1490 1490
1545 1541 1536 1531 1526 1523 1520 1517 1517 1516 1515 1514 1513 1515 1516 1517 1515 1513 1512 1510 1510 1509 1509 1509 1509 1513 1515 1518 1535 1523 1523 1520 1518 1508 1506 1506 1498 1489 1488 1488 1487 1486 1487 1488 1488
1544 1541 1535 1531 1526 1523 1520 1518 1520 1520 1517 1520 1520 1519 1517 1516 1516 1514 1511 1510 1509 1509 1512 1511 1518 1527 1521 1519 1518 1519 1521 1522 1515 1508 1507 1502 1498 1487 1482 1483 1484 1485 1485 1486 1486
1543 1540 1536 1531 1527 1524 1522 1519 1525 1527 1524 1522 1521 1520 1519 1517 1516 1516 1515 1513 1510 1514 1512 1517 1524 1519 1518 1518 1519 1518 1521 1521 1512 1506 1509 1501 1492 1482 1479 1479 1481 1482 1483 1484 1484
1543 1539 1535 1531 1527 1525 1523 1524 1525 1524 1527 1525 1524 1522 1522 1521 1519 1519 1518 1517 1516 1515 1518 1522 1519 1518 1519 1519 1520 1521 1520 1519 1521 1514 1506 1503 1492 1483 1478 1478 1479 1482 1483 1484 1484
1542 1538 1535 1531 1530 1527 1526 1526 1526 1525 1533 1529 1525 1524 1523 1522 1521 1521 1522 1524 1522 1523 1521 1522 1520 1520 1520 1520 1519 1521 1518 1520 1520 1522 1525 1508 1518 1490 1480 1479 1479 1481 1482 1483 1483
1541 1538 1534 1530 1530 1529 1529 1526 1526 1526 1553 1529 1525 1523 1521 1523 1522 1520 1520 1521 1524 1525 1527 1523 1520 1520 1520 1519 1519 1521 1516 1519 1518 1520 1525 1512 1523 1493 1483 1480 1479 1480 1482 1483 1482
1541 1537 1534 1532 1530 1529 1527 1526 1527 1536 1554 1530 1526 1523 1522 1520 1519 1519 1519 1520 1521 1522 1521 1521 1519 1519 1517 1516 1516 1515 1516 1518 1520 1525 1537 1509 1516 1498 1485 1479 1479 1481 1481 1479 1477
1540 1537 1533 1531 1531 1528 1527 1527 1538 1548 1533 1533 1529 1525 1525 1522 1519 1518 1517 1518 1523 1532 1528 1520 1517 1516 1516 1515 1516 1517 1524 1541 1542 1541 1523 1509 1518 1494 1481 1478 1479 1478 1476 1475 1474
1540 1536 1534 1532 1530 1528 1527 1530 1543 1540 1537 1533 1530 1528 1527 1524 1520 1517 1518 1524 1521 1522 1542 1535 1529 1516 1515 1516 1522 1518 1521 1550 1538 1553 1537 1521 1513 1488 1478 1477 1478 1476 1475 1474 1471
1538 1536 1534 1532 1530 1529 1528 1545 1547 1542 1540 1538 1532 1531 1529 1526 1526 1524 1522 1522 1519 1518 1526 1534 1524 1515 1515 1515 1519 1519 1522 1520 1531 1533 1544 1518 1501 1483 1479 1478 1476 1475 1472 1471 1470
1537 1535 1535 1533 1530 1530 1532 1541 1540 1537 1537 1537 1536 1533 1532 1533 1531 1530 1526 1528 1527 1525 1521 1522 1530 1514 1516 1515 1516 1517 1520 1527 1533 1542 1527 1521 1511 1497 1480 1477 1475 1473 1470 1469 1468
1538 1534 1534 1531 1530 1530 1542 1543 1540 1538 1539 1539 1538 1535 1537 1536 1535 1533 1528 1528 1525 1526 1526 1527 1531 1525 1518 1519 1517 1520 1519 1520 1524 1530 1534 1538 1502 1483 1478 1475 1474 1471 1470 1469 1467
1537 1536 1534 1532 1534 1536 1539 1538 1539 1537 1536 1536 1536 1535 1532 1532 1532 1529 1528 1527 1526 1525 1527 1528 1532 1538 1522 1512 1512 1513 1513 1515 1532 1526 1535 1539 1503 1474 1475 1475 1474 1471 1469 1467 1465
1538 1536 1535 1532 1539 1541 1538 1536 1536 1536 1535 1537 1538 1538 1534 1534 1535 1529 1525 1525 1526 1526 1526 1525 1533 1544 1524 1517 1512 1511 1510 1512 1515 1520 1517 1528 1489 1473 1473 1474 1471 1470 1467 1465 1463
1539 1539 1536 1535 1537 1537 1538 1539 1539 1536 1535 1536 1534 1537 1534 1532 1531 1530 1529 1525 1524 1524 1525 1525 1528 1529 1530 1521 1523 1519 1514 1514 1517 1514 1505 1500 1482 1471 1477 1475 1470 1468 1465 1462 1460
1538 1538 1539 1540 1539 1539 1538 1538 1538 1536 1534 1534 1536 1538 1540 1538 1534 1528 1527 1528 1524 1522 1521 1523 1526 1525 1522 1523 1522 1516 1514 1512 1511 1505 1506 1491 1491 1477 1475 1471 1467 1464 1461 1459 1457
1539 1538 1539 1539 1539 1538 1537 1537 1536 1538 1537 1535 1536 1539 1539 1538 1538 1542 1538 1532 1530 1525 1526 1524 1525 1522 1522 1521 1520 1517 1509 1505 1500 1495 1494 1489 1487 1481 1475 1470 1466 1463 1461 1459 1457
1535 1536 1537 1539 1539 1541 1537 1535 1537 1534 1538 1537 1537 1539 1537 1537 1536 1534 1533 1532 1530 1532 1533 1532 1530 1527 1523 1524 1519 1511 1501 1499 1493 1491 1492 1490 1487 1481 1476 1472 1470 1468 1462 1458 1456